Weather History for Mt. Clemens, MI

Change the Weather History Date:

Wednesday, December 19, 2012

  Actual Average Record
Temperature  
Mean Temperature 34 °F -  
Max Temperature 39 °F 33 °F 56 °F (1957)
Min Temperature 28 °F 23 °F -4 °F (1951)
Degree Days  
Heating Degree Days 32    
Moisture  
Dew Point 32 °F    
Average Humidity 88    
Maximum Humidity 100    
Minimum Humidity 75    
Precipitation  
Precipitation 0.00 in - - ()
Sea Level Pressure  
Sea Level Pressure 30.05 in    
Wind  
Wind Speed 5 mph (West)    
Max Wind Speed 10 mph    
Max Gust Speed -    
Visibility 6 miles    
Events Fog    
Averages and records for this station are not official NWS values.
T = Trace of Precipitation, MM = Missing Value Source: NWS Daily Summary

Daily Weather History Graph

Daily Weather History Graph

Search for Another Location

Airport:

Trip Planner

Search our weather history database for the weather conditions in past years. The results will help you decide how hot, cold, wet, or windy it might be!

Date:

Astronomy

Dec. 19, 2012 Rise Set
Actual Time 7:57 AM EST 5:00 PM EST
Civil Twilight 7:25 AM EST 5:32 PM EST
Nautical Twilight 6:49 AM EST 6:08 PM EST
Astronomical Twilight 6:15 AM EST 6:42 PM EST
Moon 11:57 AM EST (12/19) No Moon Set
Length of Visible Light 10h 07m
Length of Day
9h 03m
Waxing Crescent, 45% of the Moon is Illuminated
Dec 19
Waxing Crescent
Dec 20
First Quarter
Dec 28
Full
Jan 4
Last Quarter
Jan 11
New

Hourly Weather History & Observations

Time (EST) Temp. Windchill Dew Point Humidity Pressure Visibility Wind Dir Wind Speed Gust Speed Precip Events Conditions
4:55 AM 35.6 °F 32.8 °F 35.6 °F 100% 29.86 in 4.0 mi WNW 3.5 mph - N/A   Overcast
5:25 AM 35.6 °F 32.8 °F 35.6 °F 100% 29.84 in 4.0 mi WNW 3.5 mph - N/A   Overcast
5:55 AM 35.6 °F 32.8 °F 35.6 °F 100% 29.88 in 4.0 mi NW 3.5 mph - N/A   Overcast
6:55 AM 35.6 °F 32.8 °F 33.8 °F 93% 29.92 in 5.0 mi NNW 3.5 mph - N/A   Overcast
7:55 AM 35.6 °F 32.8 °F 33.8 °F 93% 29.94 in 3.0 mi WNW 3.5 mph - N/A   Overcast
8:55 AM 35.6 °F 32.8 °F 33.8 °F 93% 29.98 in 3.0 mi NW 3.5 mph - N/A   Overcast
9:35 AM 35.6 °F 29.2 °F 33.8 °F 93% 29.95 in 2.5 mi NW 8.1 mph - N/A   Overcast
9:56 AM 35.6 °F 29.9 °F 33.8 °F 93% 30.01 in 2.8 mi WNW 6.9 mph - N/A   Mostly Cloudy
10:06 AM 37.4 °F 32.8 °F 33.8 °F 87% 29.98 in 3.0 mi West 5.8 mph - N/A   Scattered Clouds
10:55 AM 39.2 °F 33.6 °F 32.0 °F 75% 30.04 in 6.0 mi West 8.1 mph - N/A   Haze
11:50 AM 39.2 °F 33.0 °F 32.0 °F 75% 30.01 in 3.0 mi West 9.2 mph - N/A   Haze
11:55 AM 39.2 °F 32.5 °F 32.0 °F 75% 30.06 in 3.0 mi West 10.4 mph - N/A   Haze
12:55 PM 39.2 °F 32.5 °F 32.0 °F 75% 30.07 in 4.0 mi West 10.4 mph - N/A   Haze
1:37 PM 39.2 °F 35.0 °F 32.0 °F 75% 30.01 in 5.0 mi West 5.8 mph - N/A   Haze
1:55 PM 39.2 °F 33.6 °F 32.0 °F 75% 30.06 in 5.0 mi West 8.1 mph - N/A   Haze
2:55 PM 39.2 °F 37.0 °F 32.0 °F 75% 30.08 in 6.0 mi West 3.5 mph - N/A   Haze
3:55 PM 39.2 °F - 32.0 °F 75% 30.10 in 7.0 mi Variable 2.3 mph - N/A   Overcast
4:05 PM 39.2 °F - 32.0 °F 75% 30.06 in 7.0 mi Calm Calm - N/A   Overcast
4:55 PM 37.4 °F 33.8 °F 32.0 °F 81% 30.11 in 7.0 mi South 4.6 mph - N/A   Mostly Cloudy
5:21 PM 32.0 °F 25.6 °F 30.2 °F 93% 30.08 in 7.0 mi South 6.9 mph - N/A   Scattered Clouds
5:56 PM 32.0 °F 26.4 °F 28.4 °F 87% 30.14 in 7.0 mi South 5.8 mph - N/A   Partly Cloudy
6:55 PM 32.0 °F - 28.4 °F 87% 30.15 in 7.0 mi SW 2.3 mph - N/A   Partly Cloudy
7:55 PM 30.2 °F - 28.4 °F 93% 30.17 in 8.0 mi Calm Calm - N/A   Partly Cloudy
8:55 PM 30.2 °F - 28.4 °F 93% 30.16 in 8.0 mi Calm Calm - N/A   Partly Cloudy
9:24 PM 28.4 °F - 28.4 °F 100% 30.11 in 7.0 mi NNW 1.2 mph - N/A Fog Shallow Fog
9:55 PM 28.4 °F - 28.4 °F 100% 30.15 in 6.0 mi ESE 2.3 mph - N/A   Partly Cloudy
10:15 PM 30.2 °F - 28.4 °F 93% 30.10 in 7.0 mi Calm Calm - N/A   Scattered Clouds
10:37 PM 32.0 °F 27.5 °F 30.2 °F 93% 30.10 in 7.0 mi SSE 4.6 mph - N/A Fog Shallow Fog
10:47 PM 30.2 °F 25.4 °F 30.2 °F 100% 30.10 in 7.0 mi SSE 4.6 mph - N/A Fog Shallow Fog
10:51 PM 32.0 °F 26.4 °F 30.2 °F 93% 30.10 in 7.0 mi SE 5.8 mph - N/A   Overcast
10:55 PM 32.0 °F 26.4 °F 30.2 °F 93% 30.14 in 7.0 mi SE 5.8 mph - N/A   Overcast